Location: Unnamed
(51.5169°N, 0.1311°W)
Time: 07:17:18
(UTC+01:00)

Vanguard 1 - Pass Details

Date: 14 August 2024
Orbit: 649 x 3825 km, 34.2° (Epoch: 16 September)

Event Time Altitude Azimuth Distance (km) Brightness Sun altitude
Rises 22:28:53 0° 216° (SW) 3,937 13.0 -16.2°
Reaches altitude 10° 22:31:45 10° 202° (SSW) 3,312 12.5 -16.5°
Maximum altitude 22:38:25 25° 151° (SSE) 3,085 12.0 -17.2°
Drops below altitude 10° 22:48:36 10° 105° (ESE) 5,245 13.3 -18.1°
Sets 22:54:45 0° 95° (E) 6,834 14.0 -18.6°
